Powrót do katalogu

STARLINK-37847

AktywnyŁącznośćVLEO
NORAD 100037·PAYLOAD·🇺🇸 United States

Wystrzelony Jul 14, 2026 z Cape Canaveral Space Force Station

Loading…

Następne Przeloty (najbliższe 24 godziny)

TLE

Starzejące sięSource: Space-Track

Epoka: Sep 13, 2026, 18:06 UTC

1 A0037U 26161K   26256.75459370  .00019964  00000-0  60038-3 0  9996
2 A0037  53.1623  29.3395 0001240  85.2955 274.8189 15.34401837  9570

Śledź STARLINK-37847 w czasie rzeczywistym z AllMySat

Download on the App Store